PE4KH-1 Weather Reports


Display with metric or nautical units.
time (UTC)temp
F
wind
direction
speed
MPH
gust
MPH
rain 1hr
in
rain 24hr
in
rain mn
in
humidity
%
barometer
mb
20180815130306 77 0.0 0.0 0.00 0.00 0.00 62 1007.7
20180815125306 76 0.0 0.0 0.00 0.00 0.00 62 1007.7
20180815124305 76 0.0 0.0 0.00 0.00 0.00 63 1007.7
20180815123302 76 0.0 0.0 0.00 0.00 0.00 66 1007.7
20180815122305 75 0.0 0.0 0.00 0.00 0.00 67 1007.7
20180815121302 75 0.0 0.0 0.00 0.00 0.00 68 1007.7
20180815120304 74 0.0 0.0 0.00 0.00 0.00 68 1007.7
20180815115303 75 0.0 0.0 0.00 0.00 0.00 69 1007.7
20180815114306 75 0.0 0.0 0.00 0.00 0.00 68 1007.7
20180815113304 75 0.0 0.0 0.00 0.00 0.00 68 1007.9
20180815112306 76 0.0 0.0 0.00 0.00 0.00 68 1007.5
20180815111302 76 0.0 0.0 0.00 0.00 0.00 67 1007.5
20180815110306 76 0.0 0.0 0.00 0.00 0.00 66 1007.5
20180815105305 76 0.0 0.0 0.00 0.00 0.00 65 1007.5
20180815104305 77 0.0 0.0 0.00 0.00 0.00 65 1007.5
20180815103304 76 0.0 0.0 0.00 0.00 0.00 65 1007.5
20180815102305 76 0.0 0.0 0.00 0.00 0.00 67 1007.5
20180815101306 76 0.0 0.0 0.00 0.00 0.00 69 1007.5
20180815100305 76 0.0 0.0 0.00 0.00 0.00 68 1007.5
20180815095306 76 0.0 0.0 0.00 0.00 0.00 69 1007.5
20180815094306 76 0.0 0.0 0.00 0.00 0.00 68 1007.5
20180815093305 76 0.0 0.0 0.00 0.00 0.00 68 1007.5
20180815092305 77 0.0 0.0 0.00 0.00 0.00 68 1007.5
20180815091306 76 0.0 0.0 0.00 0.00 0.00 70 1007.5
20180815090303 76 0.0 0.0 0.00 0.00 0.00 71 1007.5
20180815085305 75 0.0 0.0 0.00 0.00 0.00 73 1007.5
20180815084306 75 0.0 0.0 0.00 0.00 0.00 74 1007.5
20180815083307 74 0.0 0.0 0.00 0.00 0.00 75 1007.5
20180815082305 74 0.0 0.0 0.00 0.00 0.00 76 1007.3
20180815081303 74 0.0 0.0 0.00 0.00 0.00 76 1007.3
20180815080303 73 0.0 0.0 0.00 0.00 0.00 77 1007.5
20180815075305 73 0.0 0.0 0.00 0.00 0.00 77 1007.3
20180815074302 72 0.0 0.0 0.00 0.00 0.00 78 1007.3
20180815073305 72 0.0 0.0 0.00 0.00 0.00 78 1007.3
20180815072305 72 0.0 0.0 0.00 0.00 0.00 79 1007.3
20180815071302 72 0.0 0.0 0.00 0.00 0.00 79 1007.0
20180815070302 71 0.0 0.0 0.00 0.00 0.00 79 1007.0
20180815065305 71 0.0 0.0 0.00 0.00 0.00 79 1007.0
20180815064304 71 0.0 0.0 0.00 0.00 0.00 80 1007.0
20180815063305 71 0.0 0.0 0.00 0.00 0.00 81 1007.0
20180815062304 70 0.0 0.0 0.00 0.00 0.00 80 1007.0
20180815061303 70 0.0 0.0 0.00 0.00 0.00 81 1007.0
20180815060306 70 0.0 0.0 0.00 0.00 0.00 82 1006.8
20180815055303 70 0.0 0.0 0.00 0.00 0.00 81 1006.6
20180815054302 70 0.0 0.0 0.00 0.00 0.00 81 1006.8
20180815053302 70 0.0 0.0 0.00 0.00 0.00 80 1006.8
20180815052305 69 0.0 0.0 0.00 0.00 0.00 80 1006.6
20180815051307 69 0.0 0.0 0.00 0.00 0.00 80 1006.6
20180815050307 69 0.0 0.0 0.00 0.00 0.00 80 1006.4
20180815045306 69 0.0 0.0 0.00 0.00 0.00 79 1006.2
20180815044305 69 0.0 0.0 0.00 0.00 0.00 79 1006.2
20180815043304 69 0.0 0.0 0.00 0.00 0.00 79 1006.2
20180815042302 69 0.0 0.0 0.00 0.00 0.00 78 1006.2
20180815041302 69 0.0 0.0 0.00 0.00 0.00 78 1006.2
20180815040303 69 0.0 0.0 0.00 0.00 0.00 78 1006.2
20180815035303 69 0.0 0.0 0.00 0.00 0.00 78 1006.2
20180815034303 69 0.0 0.0 0.00 0.00 0.00 77 1006.2
20180815033306 70 0.0 0.0 0.00 0.00 0.00 77 1006.2
20180815032306 70 0.0 0.0 0.00 0.00 0.00 77 1006.2
20180815031303 70 0.0 0.0 0.00 0.00 0.00 76 1006.2
20180815030306 70 0.0 0.0 0.00 0.00 0.00 77 1006.4
20180815025306 70 0.0 0.0 0.00 0.00 0.00 77 1006.6
20180815024304 70 0.0 0.0 0.00 0.00 0.00 77 1006.6
20180815023302 70 0.0 0.0 0.00 0.00 0.00 77 1006.6
20180815022303 70 0.0 0.0 0.00 0.00 0.00 77 1006.6
20180815021305 70 0.0 0.0 0.00 0.00 0.00 77 1006.6
20180815020306 70 0.0 0.0 0.00 0.00 0.00 77 1006.6
20180815015306 70 0.0 0.0 0.00 0.00 0.00 78 1006.6
20180815014303 70 0.0 0.0 0.00 0.00 0.00 77 1006.6
20180815013303 70 0.0 0.0 0.00 0.00 0.00 78 1006.6
20180815012305 70 0.0 0.0 0.00 0.00 0.00 77 1006.6
20180815011303 70 0.0 0.0 0.00 0.00 0.00 77 1006.6
20180815010304 70 0.0 0.0 0.00 0.00 0.00 76 1006.6
20180815005306 70 0.0 0.0 0.00 0.00 0.00 77 1006.6
20180815004305 69 0.0 0.0 0.00 0.00 0.00 77 1006.6
20180815003303 69 0.0 0.0 0.00 0.00 0.00 76 1006.6
20180815002304 69 0.0 0.0 0.00 0.00 0.00 76 1006.6
20180815001303 69 0.0 0.0 0.00 0.00 0.00 76 1006.8
20180815000306 69 0.0 0.0 0.00 0.00 0.00 74 1006.6
20180814235304 69 0.0 0.0 0.00 0.00 0.00 75 1006.8
20180814234305 69 0.0 0.0 0.00 0.00 0.00 75 1006.8
20180814233303 70 0.0 0.0 0.00 0.00 0.00 74 1007.0
20180814232305 70 0.0 0.0 0.00 0.00 0.00 74 1006.8
20180814231305 70 0.0 0.0 0.00 0.00 0.00 74 1007.0
20180814230302 70 0.0 0.0 0.00 0.00 0.00 73 1007.0
20180814225305 70 0.0 0.0 0.00 0.00 0.00 73 1007.0
20180814224305 70 0.0 0.0 0.00 0.00 0.00 72 1007.0
20180814222304 70 0.0 0.0 0.00 0.00 0.00 72 1006.8
20180814221303 71 0.0 0.0 0.00 0.00 0.00 72 1007.0
20180814220303 71 0.0 0.0 0.00 0.00 0.00 72 1006.6
20180814215310 71 0.0 0.0 0.00 0.00 0.00 72 1006.6
20180814214302 71 0.0 0.0 0.00 0.00 0.00 72 1006.6
20180814213303 71 0.0 0.0 0.00 0.00 0.00 73 1006.6
20180814212304 71 0.0 0.0 0.00 0.00 0.00 72 1006.6
20180814211304 71 0.0 0.0 0.00 0.00 0.00 73 1006.6
20180814210303 71 0.0 0.0 0.00 0.00 0.00 73 1006.6
20180814205306 71 0.0 0.0 0.00 0.00 0.00 73 1006.6
20180814204303 71 0.0 0.0 0.00 0.00 0.00 73 1006.6
20180814203304 71 0.0 0.0 0.00 0.00 0.00 73 1006.6
20180814202305 71 0.0 0.0 0.00 0.00 0.00 73 1006.6
20180814201303 71 0.0 0.0 0.00 0.00 0.00 73 1006.6
20180814200306 71 0.0 0.0 0.00 0.00 0.00 72 1006.6
20180814195306 71 0.0 0.0 0.00 0.00 0.00 72 1006.6
20180814194305 71 0.0 0.0 0.00 0.00 0.00 73 1006.6
20180814193304 71 0.0 0.0 0.00 0.00 0.00 73 1006.6
20180814192305 71 0.0 0.0 0.00 0.00 0.00 73 1006.4
20180814191303 71 0.0 0.0 0.00 0.00 0.00 73 1006.4
20180814190306 72 0.0 0.0 0.00 0.00 0.00 72 1006.2
20180814185304 72 0.0 0.0 0.00 0.00 0.00 71 1006.2
20180814184305 72 0.0 0.0 0.00 0.00 0.00 71 1006.2
20180814183305 72 0.0 0.0 0.00 0.00 0.00 71 1006.2
20180814182303 73 0.0 0.0 0.00 0.00 0.00 72 1006.2
20180814181304 73 0.0 0.0 0.00 0.00 0.00 73 1005.9
20180814180305 73 0.0 0.0 0.00 0.00 0.00 74 1005.9
20180814173302 73 0.0 0.0 0.00 0.00 0.00 72 1005.7
20180814172306 74 0.0 0.0 0.00 0.00 0.00 70 1005.7
20180814171304 74 0.0 0.0 0.00 0.00 0.00 69 1005.7
20180814170303 74 0.0 0.0 0.00 0.00 0.00 69 1005.7
20180814165303 74 0.0 0.0 0.00 0.00 0.00 67 1005.7
20180814164303 74 0.0 0.0 0.00 0.00 0.00 66 1005.7
20180814163305 74 0.0 0.0 0.00 0.00 0.00 66 1005.7
20180814162307 74 0.0 0.0 0.00 0.00 0.00 65 1005.7
20180814161306 74 0.0 0.0 0.00 0.00 0.00 64 1005.7
20180814160306 75 0.0 0.0 0.00 0.00 0.00 63 1005.7
20180814155305 75 0.0 0.0 0.00 0.00 0.00 62 1005.7
20180814154302 75 0.0 0.0 0.00 0.00 0.00 61 1005.7
20180814153304 76 0.0 0.0 0.00 0.00 0.00 59 1005.5
20180814152305 76 0.0 0.0 0.00 0.00 0.00 58 1005.5
20180814151307 76 0.0 0.0 0.00 0.00 0.00 57 1005.7
20180814150305 76 0.0 0.0 0.00 0.00 0.00 58 1005.7
20180814145306 76 0.0 0.0 0.00 0.00 0.00 57 1005.5
20180814144304 77 0.0 0.0 0.00 0.00 0.00 57 1005.5
20180814143304 76 0.0 0.0 0.00 0.00 0.00 57 1005.3
20180814142303 76 0.0 0.0 0.00 0.00 0.00 58 1005.3
20180814141305 76 0.0 0.0 0.00 0.00 0.00 56 1005.3
20180814140304 76 0.0 0.0 0.00 0.00 0.00 57 1005.3
20180814135304 77 0.0 0.0 0.00 0.00 0.00 55 1005.3
20180814134302 77 0.0 0.0 0.00 0.00 0.00 55 1005.3
20180814133305 77 0.0 0.0 0.00 0.00 0.00 54 1005.3
20180814132304 78 0.0 0.0 0.00 0.00 0.00 54 1005.0
20180814131304 77 0.0 0.0 0.00 0.00 0.00 53 1004.8